Starlink 2113

operational
NORAD ID: 47392 Int'l Des: 2021-005 Owner: SPXS Country: US Constellation: starlink
LEOCIRCULAR

Starlink 2113について

説明を読み込み中...

リアルタイム位置

3D地球を読み込み中...

次回通過

高度履歴

Altitude vs Time

uPlot chart will show altitude changes over time

軌道要素

1 47392U 21005AV 26061.17843147 .00115004 00000-0 16030-2 0 9996
2 47392 53.0534 52.7968 0004469 75.5697 284.5809 15.56067270282508
Epoch: Mar 2, 2026 • Age: 25 hours

現在のステータス

高度 402.1 km
速度 7.68 km/s
衛星直下点 53.05°N, 26.88°W
打ち上げ日 Jan 20, 2021
運用期間 5.1 years
タイプ internet

技術仕様

分類 Payload
質量 260.00 kg
乾燥質量 248.00 kg
総質量 260.00 kg
長さ 0.20 m
直径 2.80 m
スパン 9.00 m
形状 Box + pan
製造者 SPXS
バスタイプ Starlink
フェーズステータス In Orbit
所有者/国 SPXS/US

大規模コンステレーション

Loading constellations...